Regional Weather Roundup
Issued by NWS

Home | Current Version | Previous Version | Text Only | Print | Product List | Glossary On
Versions: 1 2 3 4 5 6 7 8 9 10 11 12 13 14 15 16 17 18 19 20 21 22 23 24 25 26 27 28 29 30 31 32 33 34 35 36 37 38 39 40 41 42 43 44 45 46 47 48 49 50
000
ASUS43 KTOP 061159
RWRKS

WEATHER ROUNDUP FOR KANSAS
NATIONAL WEATHER SERVICE GOODLAND KS
600 AM CST FRI MAR 06 2015

NOTE:  "FAIR" INDICATES FEW OR NO CLOUDS BELOW 12,000 FEET WITH NO
SIGNIFICANT WEATHER AND/OR OBSTRUCTIONS TO VISIBILITY.

KSZ001>006-013>018-027>032-041>047-061300-
NORTHWEST KANSAS

CITY           SKY/WX    TMP DP  RH WIND       PRES   REMARKS
GOODLAND       CLEAR     26  20  77 W10       30.25R WCI  16
6HR MIN TEMP:  25; 6HR MAX TEMP:  28;

HAYS           CLEAR     23  10  58 W7        30.27S
HILL CITY      CLEAR     26  18  71 W9        30.27R
6HR MIN TEMP:  22; 6HR MAX TEMP:  29;

RUSSELL        CLEAR     24  17  74 SW12      30.26S WCI  13
6HR MIN TEMP:  21; 6HR MAX TEMP:  29;

$$

KSZ061>065-074>080-084>089-061300-
SOUTHWEST KANSAS

CITY           SKY/WX    TMP DP  RH WIND       PRES   REMARKS
DODGE CITY     CLEAR     26  19  74 SW8       30.30R
6HR MIN TEMP:  26; 6HR MAX TEMP:  33;

ELKHART          N/A     30  21  69 W8          N/A
GARDEN CITY    CLEAR     22  18  85 W8        30.29R
6HR MIN TEMP:  21; 6HR MAX TEMP:  28;

GREAT BEND     CLEAR     23  14  68 W6        30.30R
LIBERAL        CLEAR     25  19  80 SW6       30.31S
$$

KSZ066>073-081>083-090>101-061300-
SOUTHEAST KANSAS

CITY           SKY/WX    TMP DP  RH WIND       PRES   REMARKS
CHANUTE        CLEAR     26  19  74 S14       30.41S WCI  14
6HR MIN TEMP:  25; 6HR MAX TEMP:  28;

COFFEYVILLE    CLEAR     26  18  71 S12       30.46S WCI  16
6HR MIN TEMP:  24; 6HR MAX TEMP:  27;

HUTCHINSON     CLEAR     26  20  77 S6        30.33S
6HR MIN TEMP:  25; 6HR MAX TEMP:  32;

MEDICINE LODGE   N/A     24  20  84 SE7       30.36R
NEWTON         CLEAR     27  18  69 S16       30.34S WCI  14
PARSONS        CLEAR     25  19  78 S7        30.45S
6HR MIN TEMP:  24; 6HR MAX TEMP:  28;

WICHITA INTL   CLEAR     24  18  77 S9        30.37S
6HR MIN TEMP:  24; 6HR MAX TEMP:  33;

WICHITA JABRA  CLEAR     28  19  69 S14       30.36S WCI  17
6HR MIN TEMP:  28; 6HR MAX TEMP:  33;

WICHITA MCCONL CLEAR     26  19  77 S10       30.36F WCI  16
WINFIELD       CLEAR     27  20  75 S9        30.41S
6HR MIN TEMP:  27; 6HR MAX TEMP:  33;

$$

KSZ007>012-019>026-033>040-048>060-102>105-061300-
NORTHEAST KANSAS

CITY           SKY/WX    TMP DP  RH WIND       PRES   REMARKS
CONCORDIA      CLEAR     29  16  58 SW10      30.25S WCI  20
6HR MIN TEMP:  28; 6HR MAX TEMP:  32;

EMPORIA        CLEAR     29  19  66 S16       30.33F WCI  17
6HR MIN TEMP:  24; 6HR MAX TEMP:  30;

LAWRENCE       CLEAR     30  18  60 S12       30.32F WCI  20
6HR MIN TEMP:  21; 6HR MAX TEMP:  30;

MANHATTAN      CLEAR     29  22  75 SW9       30.31R
6HR MIN TEMP:  25; 6HR MAX TEMP:  32;

OLATHE IND     FAIR      25  18  74 S15       30.32F WCI  13
6HR MIN TEMP:  22; 6HR MAX TEMP:  25;

OLATHE EXE     FAIR      26  18  71 S12       30.32F WCI  16
6HR MIN TEMP:  21; 6HR MAX TEMP:  27;

SALINA         CLEAR     26  20  77 W3        30.32R
6HR MIN TEMP:  23; 6HR MAX TEMP:  32;

TOPEKA BILLARD CLEAR     30  19  63 SW12      30.31F WCI  20
6HR MIN TEMP:  25; 6HR MAX TEMP:  31;

TOPEKA FORBES  CLEAR     28  19  69 S14       30.30S WCI  17
6HR MIN TEMP:  26; 6HR MAX TEMP:  29;

$$



USA.gov is the U.S. government's official web portal to all federal, state and local government web resources and services.